CAPE
422 480 884 1034 937 1091 855 529 162 77 33 0 17 1 0 0 0 0 0 0 0 0
405 482 836 1026 953 924 522 256 124 74 6 43 31 0 0 0 0 0 0 0 0 0
555 730 945 893 817 674 338 148 148 79 53 60 0 0 0 0 0 0 0 0 0 0
676 934 737 811 404 362 309 198 159 75 36 3 0 0 0 0 0 0 0 0 0 0
677 694 948 758 382 158 157 217 193 70 12 0 0 0 0 0 0 0 0 0 0 0
639 852 1000 607 318 158 44 92 38 18 7 0 0 0 0 0 0 0 0 0 0 0
884 1055 683 260 102 11 12 9 0 2 0 0 0 0 0 0 0 0 0 0 0 0
1071 816 244 11 0 3 36 0 0 0 0 0 0 0 0 0 0 0 0 0 0 0
1069 387 82 20 0 43 0 0 0 0 0 0 0 0 0 0 0 0 0 0 0 0
948 410 271 206 52 22 4 0 0 0 0 0 0 0 0 0 0 0 0 0 0 0
1111 616 414 377 292 195 52 0 0 0 0 0 0 0 0 0 0 0 0 0 0 0
1226 970 584 498 363 237 85 0 0 0 0 0 0 0 0 0 0 0 0 0 0 0
1245 944 685 505 316 121 22 0 0 0 0 0 0 0 0 0 0 0 0 0 0 0
1134 897 550 341 106 13 0 0 0 0 0 0 0 0 0 0 0 0 0 0 0 0
CIN
-162 -135 -88 -69 -81 -59 -60 -86 -149 -175 -190 -0 -170 -14 -0 -0 -0 -0 -0 -0 -0 -0
-189 -150 -102 -82 -93 -70 -101 -133 -143 -161 -92 -153 -131 -0 -0 -0 -0 -0 -0 -0 -0 -0
-169 -130 -135 -127 -103 -122 -110 -152 -116 -141 -135 -137 -0 -0 -0 -0 -0 -0 -0 -0 -0 -0
-198 -153 -211 -119 -210 -189 -152 -124 -114 -90 -98 -161 -0 -0 -0 -0 -0 -0 -0 -0 -0 -0
-162 -219 -116 -185 -264 -169 -105 -129 -90 -90 -103 -0 -0 -0 -0 -0 -0 -0 -0 -0 -0 -0
-211 -128 -122 -212 -266 -184 -239 -166 -151 -135 -84 -0 -0 -0 -0 -0 -0 -0 -0 -0 -0 -0
-177 -139 -197 -272 -348 -162 -301 -270 -0 -167 -0 -0 -0 -0 -0 -0 -0 -0 -0 -0 -0 -0
-125 -210 -261 -101 -0 -72 -291 -0 -0 -0 -0 -0 -0 -0 -0 -0 -0 -0 -0 -0 -0 -0
-177 -361 -519 -559 -0 -413 -0 -0 -0 -0 -0 -0 -0 -0 -0 -0 -0 -0 -0 -0 -0 -0
-305 -415 -443 -443 -522 -462 -216 -0 -0 -0 -0 -0 -0 -0 -0 -0 -0 -0 -0 -0 -0 -0
-346 -417 -432 -397 -391 -348 -382 -0 -0 -0 -0 -0 -0 -0 -0 -0 -0 -0 -0 -0 -0 -0
-346 -334 -384 -358 -370 -376 -406 -0 -0 -0 -0 -0 -0 -0 -0 -0 -0 -0 -0 -0 -0 -0
-335 -329 -341 -374 -394 -462 -492 -0 -0 -0 -0 -0 -0 -0 -0 -0 -0 -0 -0 -0 -0 -0
-311 -334 -359 -397 -495 -494 -0 -0 -0 -0 -0 -0 -0 -0 -0 -0 -0 -0 -0 -0 -0 -0
Wind_Speed
15 9 5 7 10 9 8 8 7 9 10 12 13 15 16 18 19 18 19 18 18 18
13 10 6 7 11 17 18 10 7 7 9 10 12 14 16 17 18 18 18 18 18 18
15 12 9 9 8 11 12 14 13 10 8 9 10 12 14 16 17 18 18 18 17 18
11 12 10 10 8 11 6 5 12 15 12 9 8 10 13 15 16 17 17 17 17 18
10 12 12 11 10 14 12 8 9 7 8 9 7 9 12 14 15 15 15 16 17 18
18 16 14 14 14 16 17 15 14 9 4 3 5 8 11 12 12 13 14 15 16 17
20 17 14 12 12 13 14 14 15 16 17 17 13 3 8 11 11 11 13 15 16 17
21 15 13 10 11 13 15 16 15 13 12 15 16 17 14 11 10 10 12 13 15 17
23 16 12 10 11 13 14 14 13 13 16 18 16 18 16 12 9 9 11 13 15 17
20 14 11 10 10 11 12 13 14 14 16 17 15 15 13 11 9 10 12 13 14 16
10 8 8 10 10 11 11 12 13 14 15 14 14 13 12 10 9 10 11 13 14 15
6 7 8 8 9 9 9 10 12 13 14 12 12 12 11 10 8 8 9 11 13 15
8 9 11 10 10 10 9 10 11 13 10 10 10 11 10 8 8 8 9 12 13 13
10 12 12 10 7 11 10 10 10 11 8 7 8 9 8 7 6 7 11 14 14 13
Wind_Direction
159 137 75 27 6 2 9 14 16 15 18 19 12 7 15 21 21 3 353 348 346 347
151 138 106 33 352 324 315 338 350 359 11 9 13 15 15 15 11 8 7 4 3 358
155 134 99 75 39 358 335 316 312 315 344 356 9 14 15 11 10 10 2 9 11 8
128 132 88 106 70 354 335 331 310 306 312 336 4 9 8 6 7 5 7 8 17 19
144 128 123 118 68 73 88 90 322 340 325 314 347 7 358 359 1 7 14 19 21 19
172 155 141 113 97 101 110 102 108 90 331 296 324 357 350 2 4 12 18 23 18 12
174 159 138 108 87 100 102 94 105 107 107 133 129 32 341 18 23 7 16 19 13 9
181 157 138 108 95 97 99 105 103 96 94 117 119 131 118 80 61 35 23 11 16 16
173 159 136 113 100 102 103 104 98 88 104 117 113 116 105 90 62 37 34 29 17 19
161 155 131 116 111 114 113 105 108 105 113 118 106 109 95 83 61 51 45 36 27 22
156 146 137 131 123 123 116 112 112 117 116 111 108 106 99 87 66 54 42 31 25 18
176 163 159 153 142 130 119 113 114 119 121 115 108 110 104 88 71 53 37 24 15 9
203 187 180 172 158 143 134 126 119 122 119 114 110 113 106 91 70 42 24 9 5 9
220 209 192 187 173 147 136 127 121 118 110 101 111 110 99 82 59 28 4 356 0 8